User: anonymous   Login
Location: Bethera
(33.2010°N, 79.7880°W)
Time: 04:41:22
(UTC-05:00)
Language:

Cosmos 1833 Rocket - Orbit

View from above orbital plane
View from above orbital plane
View from above satellite
View from above satellite

Ground track
Ground track

The orbit data is extracted from the following two-line orbital elements,

1 17590U 87027B   14332.40197871 -.00000121  00000-0 -36331-4 0  8351
2 17590 071.0039 311.9770 0007616 282.6506 077.3766 14.16668041432159
Epoch (UTC): 28 November 2014 09:38:50
Eccentricity: 0.0007616
inclination: 71.0039°
perigee height: 831 km
apogee height: 842 km
right ascension of ascending node: 311.9770°
argument of perigee: 282.6506°
revolutions per day: 14.16668041
mean anomaly at epoch: 77.3766°
orbit number at epoch: 43215

The dashed part of the orbit path shows where the satellite is in the earth's shadow,  

DLR